NUSANTARA SATU

Last updated on Sat Apr 13 2024 01:02:39 GMT+0100 (British Summer Time)

1 44048U 19009A 24103.51785654 -.00000243 00000+0 00000+0 0 9998 2 44048 0.0330 134.2395 0002504 317.8195 81.5634 1.00271268 18799
UTC large
Height (km)
Speed (km/s)
/
Latitude / Longitude
Inclination (degrees)
Orbital Period (minutes)
Azimuth
Elevation
Range (km)
Doppler Factor

Next 0 passes for location: London (51.5072 / 0.1276)

Sorry there are no passes over London.